Location: ???? ?????????
(44.3677°N, 135.2344°E)
Time: 13:52:35
(UTC+00:00)

Exosat Rocket - Pass Details

Date: 19 May 2025
Orbit: 761 x 2512 km, 72.3° (Epoch: 20 June)

Event Time Altitude Azimuth Distance (km) Brightness Sun altitude
Rises 15:15:48 0° 330° (NNW) 3,284 7.6 -25.6°
Reaches altitude 10° 15:18:14 10° 324° (NW) 2,309 6.6 -25.5°
Enters shadow 15:22:38 44° 264° (W) 1,070 4.1 -25.4°
